Location: Igon
(43.1667°N, 0.2333°W)
Time: 01:56:50
(UTC+00:00)

SKYMED 3 - Visible Passes

Search period start: 12 April 2021 00:00
Search period end: 22 April 2021 00:00
Orbit: 621 x 623 km, 97.9° (Epoch: 11 April)

Date Brightness Start Highest point End Pass type
(mag) Time Alt. Az. Time Alt. Az. Time Alt. Az.
12 Apr 7.9 04:02:19 10° ESE 04:05:06 17° ENE 04:07:54 10° NNE visible
13 Apr 7.2 04:19:26 10° ESE 04:22:58 25° ENE 04:26:30 10° NNE visible
13 Apr 7.8 19:17:56 10° NNW 19:21:04 20° WNW 19:24:11 10° WSW visible
14 Apr 6.4 04:36:52 10° SE 04:40:51 37° ENE 04:44:52 10° N visible
14 Apr 8.1 19:36:47 10° NNW 19:38:52 13° WNW 19:40:58 10° W visible
17 Apr 8.0 03:56:42 10° E 03:59:08 15° ENE 04:01:35 10° NNE visible
18 Apr 7.5 04:13:39 10° ESE 04:16:58 22° ENE 04:20:17 10° NNE visible
18 Apr 7.6 19:11:42 10° NNW 19:15:04 22° WNW 19:18:26 10° WSW visible
19 Apr 6.7 04:31:00 10° SE 04:34:51 32° ENE 04:38:43 10° N visible
19 Apr 8.0 19:30:23 10° NNW 19:32:54 15° WNW 19:35:25 10° W visible
20 Apr 8.6 19:50:13 10° NW 19:50:41 10° WNW 19:51:09 10° WNW visible
